Location: Cosy Dell
(34.2789°N, 117.4537°W)
Time: 11:02:36
(UTC+00:00)

Cosmos 1371 Rocket - Pass Details

Date: 14 July 2020
Orbit: 753 x 790 km, 74.0° (Epoch: 08 August)

Event Time Altitude Azimuth Distance (km) Brightness Sun altitude
Rises 05:36:15 0° 343° (NNW) 3,258 8.4 -25.0°
Reaches altitude 10° 05:38:37 10° 343° (NNW) 2,332 7.4 -25.3°
Maximum altitude 05:43:57 89° 74° (ENE) 787 3.9 -25.9°
Enters shadow 05:44:13 82° 159° (SSE) 795 3.9 -26.0°
